Year,Month,Day,Hour,Minute,Value (Times are PST for barometer in hPa)
2016,10,15,00,00,999.32
2016,10,15,00,01,999.32
2016,10,15,00,02,999.39
2016,10,15,00,03,999.36
2016,10,15,00,04,999.36
2016,10,15,00,05,999.39
2016,10,15,00,06,999.39
2016,10,15,00,07,999.32
2016,10,15,00,08,999.36
2016,10,15,00,09,999.36
2016,10,15,00,10,999.32
2016,10,15,00,11,999.32
2016,10,15,00,12,999.36
2016,10,15,00,13,999.36
2016,10,15,00,17,999.40
2016,10,15,00,18,999.42
2016,10,15,00,19,999.36
2016,10,15,00,20,999.33
2016,10,15,00,21,999.36
2016,10,15,00,22,999.37
2016,10,15,00,23,999.43
2016,10,15,00,24,999.46
2016,10,15,00,25,999.50
2016,10,15,00,26,999.53
2016,10,15,00,27,999.57
2016,10,15,00,28,999.62
2016,10,15,00,29,999.60
2016,10,15,00,30,999.66
2016,10,15,00,31,999.63
2016,10,15,00,32,999.62
2016,10,15,00,33,999.60
2016,10,15,00,34,999.63
2016,10,15,00,35,999.67
2016,10,15,00,36,999.75
2016,10,15,00,37,999.70
2016,10,15,00,38,999.71
2016,10,15,00,39,999.76
2016,10,15,00,40,999.73
2016,10,15,00,41,999.77
2016,10,15,00,42,999.83
2016,10,15,00,43,999.84
2016,10,15,00,44,999.89
2016,10,15,00,45,999.83
2016,10,15,00,46,999.80
2016,10,15,00,47,999.83
2016,10,15,00,48,999.80
2016,10,15,00,49,999.80
2016,10,15,00,50,999.80
2016,10,15,00,51,999.79
2016,10,15,00,52,999.77
2016,10,15,00,53,999.80
2016,10,15,00,54,999.80
2016,10,15,00,55,999.83
2016,10,15,00,56,999.83
2016,10,15,00,57,999.82
2016,10,15,00,58,999.77
2016,10,15,00,59,999.83
2016,10,15,01,00,999.83
2016,10,15,01,01,999.86
2016,10,15,01,02,999.83
2016,10,15,01,03,999.88
2016,10,15,01,04,999.90
2016,10,15,01,05,999.88
2016,10,15,01,06,999.90
2016,10,15,01,07,999.90
2016,10,15,01,08,999.94
2016,10,15,01,09,999.99
2016,10,15,01,10,999.94
2016,10,15,01,11,1000.00
2016,10,15,01,12,1000.00
2016,10,15,01,13,1000.03
2016,10,15,01,14,1000.00
2016,10,15,01,15,1000.04
2016,10,15,01,16,1000.07
2016,10,15,01,17,1000.07
2016,10,15,01,18,1000.08
2016,10,15,01,19,1000.14
2016,10,15,01,20,1000.11
2016,10,15,01,21,1000.19
2016,10,15,01,22,1000.08
2016,10,15,01,23,1000.14
2016,10,15,01,24,1000.14
2016,10,15,01,25,1000.13
2016,10,15,01,26,1000.11
2016,10,15,01,27,1000.17
2016,10,15,01,28,1000.14
2016,10,15,01,29,1000.17
2016,10,15,01,30,1000.20
2016,10,15,01,31,1000.17
2016,10,15,01,32,1000.20
2016,10,15,01,33,1000.17
2016,10,15,01,34,1000.17
2016,10,15,01,35,1000.14
2016,10,15,01,36,1000.17
2016,10,15,01,37,1000.14
2016,10,15,01,38,1000.13
2016,10,15,01,39,1000.10
2016,10,15,01,40,1000.14
2016,10,15,01,41,1000.14
2016,10,15,01,42,1000.17
2016,10,15,01,43,1000.14
2016,10,15,01,44,1000.11
2016,10,15,01,45,1000.13
2016,10,15,01,46,1000.11
2016,10,15,01,47,1000.14
2016,10,15,01,48,1000.11
2016,10,15,01,49,1000.13
2016,10,15,01,50,1000.07
2016,10,15,01,51,1000.06
2016,10,15,01,52,1000.00
2016,10,15,01,53,1000.03
2016,10,15,01,54,1000.03
2016,10,15,01,55,1000.03
2016,10,15,01,56,1000.00
2016,10,15,01,57,999.97
2016,10,15,01,58,1000.00
2016,10,15,01,59,1000.00
2016,10,15,02,00,1000.03
2016,10,15,02,01,1000.04
2016,10,15,02,02,1000.10
2016,10,15,02,03,1000.06
2016,10,15,02,04,1000.03
2016,10,15,02,05,1000.03
2016,10,15,02,06,1000.03
2016,10,15,02,07,1000.02
2016,10,15,02,08,999.98
2016,10,15,02,09,1000.03
2016,10,15,02,10,1000.00
2016,10,15,02,11,1000.00
2016,10,15,02,12,1000.03
2016,10,15,02,13,1000.03
2016,10,15,02,14,1000.01
2016,10,15,02,15,1000.07
2016,10,15,02,16,1000.07
2016,10,15,02,17,1000.03
2016,10,15,02,18,1000.04
2016,10,15,02,19,1000.10
2016,10,15,02,20,1000.11
2016,10,15,02,21,1000.17
2016,10,15,02,22,1000.14
2016,10,15,02,23,1000.10
2016,10,15,02,24,1000.07
2016,10,15,02,25,1000.06
2016,10,15,02,26,1000.04
2016,10,15,02,27,1000.07
2016,10,15,02,28,1000.07
2016,10,15,02,29,1000.10
2016,10,15,02,30,1000.10
2016,10,15,02,31,1000.14
2016,10,15,02,32,1000.17
2016,10,15,02,33,1000.17
2016,10,15,02,34,1000.14
2016,10,15,02,35,1000.17
2016,10,15,02,36,1000.17
2016,10,15,02,37,1000.17
2016,10,15,02,38,1000.17
2016,10,15,02,39,1000.14
2016,10,15,02,40,1000.17
2016,10,15,02,41,1000.20
2016,10,15,02,42,1000.17
2016,10,15,02,43,1000.17
2016,10,15,02,44,1000.20
2016,10,15,02,45,1000.20
2016,10,15,02,46,1000.20
2016,10,15,02,47,1000.24
2016,10,15,02,48,1000.20
2016,10,15,02,49,1000.23
2016,10,15,02,50,1000.21
2016,10,15,02,51,1000.23
2016,10,15,02,52,1000.17
2016,10,15,02,53,1000.17
2016,10,15,02,54,1000.14
2016,10,15,02,55,1000.10
2016,10,15,02,56,1000.07
2016,10,15,02,57,1000.06
2016,10,15,02,58,1000.00
2016,10,15,02,59,1000.00
2016,10,15,03,00,999.97
2016,10,15,03,01,999.97
2016,10,15,03,02,999.97
2016,10,15,03,03,999.97
2016,10,15,03,04,999.97
2016,10,15,03,05,999.97
2016,10,15,03,06,999.96
2016,10,15,03,07,999.93
2016,10,15,03,08,999.97
2016,10,15,03,09,999.97
2016,10,15,03,10,999.97
2016,10,15,03,11,999.93
2016,10,15,03,12,999.92
2016,10,15,03,13,999.87
2016,10,15,03,14,999.87
2016,10,15,03,15,999.83
2016,10,15,03,16,999.83
2016,10,15,03,17,999.80
2016,10,15,03,18,999.80
2016,10,15,03,19,999.80
2016,10,15,03,20,999.79
2016,10,15,03,21,999.73
2016,10,15,03,22,999.73
2016,10,15,03,23,999.70
2016,10,15,03,24,999.70
2016,10,15,03,25,999.70
2016,10,15,03,26,999.73
2016,10,15,03,27,999.73
2016,10,15,03,28,999.70
2016,10,15,03,29,999.73
2016,10,15,03,30,999.70
2016,10,15,03,31,999.71
2016,10,15,03,32,999.75
2016,10,15,03,33,999.70
2016,10,15,03,34,999.70
2016,10,15,03,35,999.73
2016,10,15,03,36,999.70
2016,10,15,03,37,999.73
2016,10,15,03,38,999.73
2016,10,15,03,39,999.70
2016,10,15,03,40,999.70
2016,10,15,03,41,999.66
2016,10,15,03,42,999.63
2016,10,15,03,43,999.63
2016,10,15,03,44,999.63
2016,10,15,03,45,999.63
2016,10,15,03,46,999.59
2016,10,15,03,47,999.60
2016,10,15,03,48,999.66
2016,10,15,03,49,999.66
2016,10,15,03,50,999.62
2016,10,15,03,51,999.56
2016,10,15,03,52,999.56
2016,10,15,03,53,999.54
2016,10,15,03,54,999.59
2016,10,15,03,55,999.59
2016,10,15,03,56,999.56
2016,10,15,03,57,999.53
2016,10,15,03,58,999.48
2016,10,15,03,59,999.43
2016,10,15,04,00,999.46
2016,10,15,04,01,999.46
2016,10,15,04,02,999.43
2016,10,15,04,03,999.39
2016,10,15,04,04,999.39
2016,10,15,04,05,999.39
2016,10,15,04,06,999.36
2016,10,15,04,07,999.32
2016,10,15,04,08,999.32
2016,10,15,04,09,999.32
2016,10,15,04,10,999.32
2016,10,15,04,11,999.29
2016,10,15,04,12,999.29
2016,10,15,04,13,999.29
2016,10,15,04,14,999.29
2016,10,15,04,15,999.29
2016,10,15,04,16,999.28
2016,10,15,04,17,999.22
2016,10,15,04,18,999.22
2016,10,15,04,19,999.21
2016,10,15,04,20,999.15
2016,10,15,04,21,999.12
2016,10,15,04,22,999.14
2016,10,15,04,23,999.09
2016,10,15,04,24,999.08
2016,10,15,04,25,999.02
2016,10,15,04,26,998.99
2016,10,15,04,27,998.99
2016,10,15,04,28,998.95
2016,10,15,04,29,998.92
2016,10,15,04,30,998.88
2016,10,15,04,31,998.85
2016,10,15,04,32,998.85
2016,10,15,04,33,998.88
2016,10,15,04,34,998.88
2016,10,15,04,35,998.92
2016,10,15,04,36,998.88
2016,10,15,04,37,998.92
2016,10,15,04,38,998.88
2016,10,15,04,39,998.85
2016,10,15,04,40,998.82
2016,10,15,04,41,998.85
2016,10,15,04,42,998.82
2016,10,15,04,43,998.82
2016,10,15,04,44,998.78
2016,10,15,04,45,998.78
2016,10,15,04,46,998.78
2016,10,15,04,47,998.75
2016,10,15,04,48,998.75
2016,10,15,04,49,998.75
2016,10,15,04,50,998.71
2016,10,15,04,51,998.71
2016,10,15,04,52,998.71
2016,10,15,04,53,998.68
2016,10,15,04,54,998.68
2016,10,15,04,55,998.67
2016,10,15,04,56,998.61
2016,10,15,04,57,998.61
2016,10,15,04,58,998.61
2016,10,15,04,59,998.60
2016,10,15,05,00,998.54
2016,10,15,05,01,998.51
2016,10,15,05,02,998.48
2016,10,15,05,03,998.44
2016,10,15,05,04,998.41
2016,10,15,05,05,998.44
2016,10,15,05,06,998.44
2016,10,15,05,07,998.44
2016,10,15,05,08,998.47
2016,10,15,05,09,998.42
2016,10,15,05,10,998.48
2016,10,15,05,11,998.45
2016,10,15,05,12,998.50
2016,10,15,05,13,998.44
2016,10,15,05,14,998.43
2016,10,15,05,15,998.38
2016,10,15,05,16,998.38
2016,10,15,05,17,998.34
2016,10,15,05,18,998.34
2016,10,15,05,19,998.31
2016,10,15,05,20,998.27
2016,10,15,05,21,998.27
2016,10,15,05,22,998.28
2016,10,15,05,23,998.34
2016,10,15,05,24,998.27
2016,10,15,05,25,998.31
2016,10,15,05,26,998.32
2016,10,15,05,27,998.38
2016,10,15,05,28,998.34
2016,10,15,05,29,998.38
2016,10,15,05,30,998.34
2016,10,15,05,31,998.38
2016,10,15,05,32,998.34
2016,10,15,05,33,998.38
2016,10,15,05,34,998.34
2016,10,15,05,35,998.32
2016,10,15,05,36,998.41
2016,10,15,05,37,998.41
2016,10,15,05,38,998.38
2016,10,15,05,39,998.38
2016,10,15,05,40,998.34
2016,10,15,05,41,998.31
2016,10,15,05,42,998.31
2016,10,15,05,43,998.31
2016,10,15,05,44,998.31
2016,10,15,05,45,998.33
2016,10,15,05,46,998.27
2016,10,15,05,47,998.27
2016,10,15,05,48,998.27
2016,10,15,05,49,998.27
2016,10,15,05,50,998.26
2016,10,15,05,51,998.21
2016,10,15,05,52,998.21
2016,10,15,05,53,998.17
2016,10,15,05,54,998.14
2016,10,15,05,55,998.10
2016,10,15,05,56,998.10
2016,10,15,05,57,998.07
2016,10,15,05,58,998.04
2016,10,15,05,59,998.03
2016,10,15,06,00,997.94
2016,10,15,06,01,997.90
2016,10,15,06,02,997.87
2016,10,15,06,03,997.87
2016,10,15,06,04,997.87
2016,10,15,06,05,997.90
2016,10,15,06,06,997.87
2016,10,15,06,07,997.83
2016,10,15,06,08,997.87
2016,10,15,06,09,997.83
2016,10,15,06,10,997.82
2016,10,15,06,11,997.77
2016,10,15,06,12,997.76
2016,10,15,06,13,997.70
2016,10,15,06,14,997.66
2016,10,15,06,15,997.66
2016,10,15,06,16,997.66
2016,10,15,06,17,997.63
2016,10,15,06,18,997.63
2016,10,15,06,19,997.60
2016,10,15,06,20,997.60
2016,10,15,06,21,997.63
2016,10,15,06,22,997.60
2016,10,15,06,23,997.56
2016,10,15,06,24,997.53
2016,10,15,06,25,997.50
2016,10,15,06,26,997.49
2016,10,15,06,27,997.43
2016,10,15,06,28,997.46
2016,10,15,06,29,997.43
2016,10,15,06,30,997.43
2016,10,15,06,31,997.43
2016,10,15,06,32,997.40
2016,10,15,06,33,997.46
2016,10,15,06,34,997.43
2016,10,15,06,35,997.39
2016,10,15,06,36,997.36
2016,10,15,06,37,997.33
2016,10,15,06,38,997.36
2016,10,15,06,39,997.36
2016,10,15,06,40,997.36
2016,10,15,06,41,997.35
2016,10,15,06,42,997.28
2016,10,15,06,43,997.22
2016,10,15,06,44,997.22
2016,10,15,06,45,997.19
2016,10,15,06,46,997.16
2016,10,15,06,47,997.16
2016,10,15,06,48,997.19
2016,10,15,06,49,997.18
2016,10,15,06,50,997.12
2016,10,15,06,51,997.17
2016,10,15,06,52,997.21
2016,10,15,06,53,997.16
2016,10,15,06,54,997.19
2016,10,15,06,55,997.18
2016,10,15,06,56,997.09
2016,10,15,06,57,997.08
2016,10,15,06,58,997.02
2016,10,15,06,59,997.05
2016,10,15,07,00,997.02
2016,10,15,07,01,997.02
2016,10,15,07,02,996.99
2016,10,15,07,03,997.02
2016,10,15,07,04,996.99
2016,10,15,07,05,996.95
2016,10,15,07,06,996.98
2016,10,15,07,07,996.86
2016,10,15,07,08,996.92
2016,10,15,07,09,996.92
2016,10,15,07,10,996.93
2016,10,15,07,11,996.98
2016,10,15,07,12,996.89
2016,10,15,07,13,996.89
2016,10,15,07,14,996.85
2016,10,15,07,15,996.84
2016,10,15,07,16,996.78
2016,10,15,07,17,996.75
2016,10,15,07,18,996.68
2016,10,15,07,19,996.65
2016,10,15,07,20,996.61
2016,10,15,07,21,996.58
2016,10,15,07,22,996.51
2016,10,15,07,23,996.51
2016,10,15,07,24,996.47
2016,10,15,07,25,996.41
2016,10,15,07,26,996.41
2016,10,15,07,27,996.44
2016,10,15,07,28,996.38
2016,10,15,07,29,996.34
2016,10,15,07,30,996.24
2016,10,15,07,31,996.21
2016,10,15,07,32,996.24
2016,10,15,07,33,996.21
2016,10,15,07,34,996.17
2016,10,15,07,35,996.17
2016,10,15,07,36,996.17
2016,10,15,07,37,996.20
2016,10,15,07,38,996.11
2016,10,15,07,39,996.14
2016,10,15,07,40,996.11
2016,10,15,07,41,996.14
2016,10,15,07,42,996.04
2016,10,15,07,43,996.11
2016,10,15,07,44,996.07
2016,10,15,07,45,996.04
2016,10,15,07,46,996.03
2016,10,15,07,47,995.97
2016,10,15,07,48,995.95
2016,10,15,07,49,996.03
2016,10,15,07,50,995.97
2016,10,15,07,51,995.97
2016,10,15,07,52,995.94
2016,10,15,07,53,995.94
2016,10,15,07,54,995.94
2016,10,15,07,55,995.93
2016,10,15,07,56,995.84
2016,10,15,07,57,995.80
2016,10,15,07,58,995.77
2016,10,15,07,59,995.80
2016,10,15,08,00,995.80
2016,10,15,08,01,995.77
2016,10,15,08,02,995.77
2016,10,15,08,03,995.73
2016,10,15,08,04,995.71
2016,10,15,08,05,995.76
2016,10,15,08,06,995.70
2016,10,15,08,07,995.73
2016,10,15,08,08,995.73
2016,10,15,08,09,995.77
2016,10,15,08,10,995.73
2016,10,15,08,11,995.73
2016,10,15,08,12,995.70
2016,10,15,08,13,995.70
2016,10,15,08,14,995.70
2016,10,15,08,15,995.78
2016,10,15,08,16,995.84
2016,10,15,08,17,995.80
2016,10,15,08,18,995.84
2016,10,15,08,19,995.78
2016,10,15,08,20,995.83
2016,10,15,08,21,995.77
2016,10,15,08,22,995.77
2016,10,15,08,23,995.77
2016,10,15,08,24,995.80
2016,10,15,08,25,995.77
2016,10,15,08,26,995.73
2016,10,15,08,27,995.70
2016,10,15,08,28,995.67
2016,10,15,08,29,995.70
2016,10,15,08,30,995.67
2016,10,15,08,31,995.59
2016,10,15,08,32,995.53
2016,10,15,08,33,995.53
2016,10,15,08,34,995.53
2016,10,15,08,35,995.53
2016,10,15,08,36,995.53
2016,10,15,08,37,995.50
2016,10,15,08,38,995.53
2016,10,15,08,39,995.50
2016,10,15,08,40,995.45
2016,10,15,08,41,995.40
2016,10,15,08,42,995.35
2016,10,15,08,43,995.29
2016,10,15,08,44,995.33
2016,10,15,08,45,995.29
2016,10,15,08,46,995.26
2016,10,15,08,47,995.26
2016,10,15,08,48,995.29
2016,10,15,08,49,995.29
2016,10,15,08,50,995.26
2016,10,15,08,51,995.26
2016,10,15,08,52,995.29
2016,10,15,08,53,995.26
2016,10,15,08,54,995.25
2016,10,15,08,55,995.19
2016,10,15,08,56,995.16
2016,10,15,08,57,995.26
2016,10,15,08,58,995.19
2016,10,15,08,59,995.23
2016,10,15,09,00,995.22
2016,10,15,09,01,995.16
2016,10,15,09,02,995.19
2016,10,15,09,03,995.16
2016,10,15,09,04,995.18
2016,10,15,09,05,995.09
2016,10,15,09,06,995.06
2016,10,15,09,07,995.06
2016,10,15,09,08,995.02
2016,10,15,09,09,995.02
2016,10,15,09,10,994.96
2016,10,15,09,11,994.92
2016,10,15,09,12,994.92
2016,10,15,09,13,994.88
2016,10,15,09,14,994.79
2016,10,15,09,15,994.82
2016,10,15,09,16,994.79
2016,10,15,09,17,994.82
2016,10,15,09,18,994.79
2016,10,15,09,19,994.74
2016,10,15,09,20,994.67
2016,10,15,09,21,994.58
2016,10,15,09,22,994.58
2016,10,15,09,23,994.54
2016,10,15,09,24,994.48
2016,10,15,09,25,994.52
2016,10,15,09,26,994.52
2016,10,15,09,27,994.48
2016,10,15,09,28,994.41
2016,10,15,09,29,994.45
2016,10,15,09,30,994.35
2016,10,15,09,31,994.31
2016,10,15,09,32,994.28
2016,10,15,09,33,994.28
2016,10,15,09,34,994.27
2016,10,15,09,35,994.18
2016,10,15,09,36,994.17
2016,10,15,09,37,994.07
2016,10,15,09,38,994.04
2016,10,15,09,39,994.07
2016,10,15,09,40,994.01
2016,10,15,09,41,994.03
2016,10,15,09,42,993.94
2016,10,15,09,43,993.96
2016,10,15,09,44,993.91
2016,10,15,09,45,993.87
2016,10,15,09,46,993.87
2016,10,15,09,47,993.87
2016,10,15,09,48,993.87
2016,10,15,09,49,993.84
2016,10,15,09,50,993.84
2016,10,15,09,51,993.77
2016,10,15,09,52,993.74
2016,10,15,09,53,993.77
2016,10,15,09,54,993.70
2016,10,15,09,55,993.70
2016,10,15,09,56,993.67
2016,10,15,09,57,993.62
2016,10,15,09,58,993.57
2016,10,15,09,59,993.57
2016,10,15,10,00,993.50
2016,10,15,10,01,993.49
2016,10,15,10,02,993.40
2016,10,15,10,03,993.36
2016,10,15,10,04,993.32
2016,10,15,10,05,993.26
2016,10,15,10,06,993.22
2016,10,15,10,07,993.13
2016,10,15,10,08,993.19
2016,10,15,10,09,993.13
2016,10,15,10,10,993.13
2016,10,15,10,11,993.09
2016,10,15,10,12,993.06
2016,10,15,10,13,993.02
2016,10,15,10,14,992.95
2016,10,15,10,15,992.86
2016,10,15,10,16,992.82
2016,10,15,10,17,992.79
2016,10,15,10,18,992.74
2016,10,15,10,19,992.65
2016,10,15,10,20,992.61
2016,10,15,10,21,992.52
2016,10,15,10,22,992.45
2016,10,15,10,23,992.42
2016,10,15,10,24,992.45
2016,10,15,10,25,992.35
2016,10,15,10,26,992.34
2016,10,15,10,27,992.25
2016,10,15,10,28,992.21
2016,10,15,10,29,992.14
2016,10,15,10,30,992.08
2016,10,15,10,31,992.01
2016,10,15,10,32,992.04
2016,10,15,10,33,991.97
2016,10,15,10,34,991.91
2016,10,15,10,35,991.86
2016,10,15,10,36,991.80
2016,10,15,10,37,991.70
2016,10,15,10,38,991.73
2016,10,15,10,39,991.64
2016,10,15,10,40,991.54
2016,10,15,10,41,991.59
2016,10,15,10,42,991.47
2016,10,15,10,43,991.37
2016,10,15,10,44,991.36
2016,10,15,10,45,991.26
2016,10,15,10,46,991.25
2016,10,15,10,47,991.16
2016,10,15,10,48,991.13
2016,10,15,10,49,991.13
2016,10,15,10,50,991.12
2016,10,15,10,51,991.03
2016,10,15,10,52,991.08
2016,10,15,10,53,991.02
2016,10,15,10,54,990.96
2016,10,15,10,55,990.89
2016,10,15,10,56,990.79
2016,10,15,10,57,990.76
2016,10,15,10,58,990.79
2016,10,15,10,59,990.82
2016,10,15,11,00,990.79
2016,10,15,11,01,990.79
2016,10,15,11,02,990.72
2016,10,15,11,03,990.69
2016,10,15,11,04,990.76
2016,10,15,11,05,990.69
2016,10,15,11,06,990.65
2016,10,15,11,07,990.62
2016,10,15,11,08,990.65
2016,10,15,11,09,990.62
2016,10,15,11,10,990.55
2016,10,15,11,11,990.52
2016,10,15,11,12,990.52
2016,10,15,11,13,990.49
2016,10,15,11,14,990.45
2016,10,15,11,15,990.42
2016,10,15,11,16,990.37
2016,10,15,11,17,990.28
2016,10,15,11,18,990.25
2016,10,15,11,19,990.18
2016,10,15,11,20,990.11
2016,10,15,11,21,990.11
2016,10,15,11,22,990.08
2016,10,15,11,23,990.01
2016,10,15,11,24,990.04
2016,10,15,11,25,990.08
2016,10,15,11,26,989.98
2016,10,15,11,27,989.94
2016,10,15,11,28,989.97
2016,10,15,11,29,989.91
2016,10,15,11,30,989.88
2016,10,15,11,31,989.81
2016,10,15,11,32,989.81
2016,10,15,11,33,989.73
2016,10,15,11,34,989.67
2016,10,15,11,35,989.60
2016,10,15,11,36,989.64
2016,10,15,11,37,989.60
2016,10,15,11,38,989.57
2016,10,15,11,39,989.53
2016,10,15,11,40,989.46
2016,10,15,11,41,989.38
2016,10,15,11,42,989.47
2016,10,15,11,43,989.37
2016,10,15,11,44,989.40
2016,10,15,11,45,989.30
2016,10,15,11,46,989.36
2016,10,15,11,47,989.27
2016,10,15,11,48,989.27
2016,10,15,11,49,989.22
2016,10,15,11,50,989.10
2016,10,15,11,51,989.13
2016,10,15,11,52,989.10
2016,10,15,11,53,989.06
2016,10,15,11,54,989.10
2016,10,15,11,55,989.06
2016,10,15,11,56,989.03
2016,10,15,11,57,989.02
2016,10,15,11,58,988.89
2016,10,15,11,59,988.89
2016,10,15,12,00,988.96
2016,10,15,12,01,989.00
2016,10,15,12,02,988.93
2016,10,15,12,03,988.89
2016,10,15,12,04,988.93
2016,10,15,12,05,988.93
2016,10,15,12,06,988.96
2016,10,15,12,07,988.86
2016,10,15,12,08,988.86
2016,10,15,12,09,988.83
2016,10,15,12,10,988.76
2016,10,15,12,11,988.71
2016,10,15,12,12,988.59
2016,10,15,12,13,988.52
2016,10,15,12,14,988.49
2016,10,15,12,15,988.45
2016,10,15,12,16,988.45
2016,10,15,12,17,988.49
2016,10,15,12,18,988.45
2016,10,15,12,19,988.45
2016,10,15,12,20,988.42
2016,10,15,12,21,988.39
2016,10,15,12,22,988.39
2016,10,15,12,23,988.39
2016,10,15,12,24,988.32
2016,10,15,12,25,988.27
2016,10,15,12,26,988.14
2016,10,15,12,27,988.01
2016,10,15,12,28,988.04
2016,10,15,12,29,987.94
2016,10,15,12,30,987.81
2016,10,15,12,31,987.78
2016,10,15,12,32,987.74
2016,10,15,12,33,987.71
2016,10,15,12,34,987.64
2016,10,15,12,35,987.61
2016,10,15,12,36,987.54
2016,10,15,12,37,987.50
2016,10,15,12,38,987.36
2016,10,15,12,39,987.27
2016,10,15,12,40,987.20
2016,10,15,12,41,987.13
2016,10,15,12,42,987.09
2016,10,15,12,43,986.99
2016,10,15,12,44,986.90
2016,10,15,12,45,986.82
2016,10,15,12,46,986.68
2016,10,15,12,47,986.59
2016,10,15,12,48,986.56
2016,10,15,12,49,986.49
2016,10,15,12,50,986.41
2016,10,15,12,51,986.32
2016,10,15,12,52,986.24
2016,10,15,12,53,986.12
2016,10,15,12,54,986.08
2016,10,15,12,55,985.98
2016,10,15,12,56,985.95
2016,10,15,12,57,985.91
2016,10,15,12,58,985.81
2016,10,15,12,59,985.78
2016,10,15,13,00,985.78
2016,10,15,13,01,985.71
2016,10,15,13,02,985.64
2016,10,15,13,03,985.61
2016,10,15,13,04,985.60
2016,10,15,13,05,985.47
2016,10,15,13,06,985.44
2016,10,15,13,07,985.44
2016,10,15,13,08,985.37
2016,10,15,13,09,985.37
2016,10,15,13,10,985.29
2016,10,15,13,11,985.20
2016,10,15,13,12,985.20
2016,10,15,13,13,985.13
2016,10,15,13,14,985.11
2016,10,15,13,15,985.24
2016,10,15,13,16,985.23
2016,10,15,13,17,985.09
2016,10,15,13,18,985.00
2016,10,15,13,19,984.97
2016,10,15,13,20,984.89
2016,10,15,13,21,984.76
2016,10,15,13,22,984.76
2016,10,15,13,23,984.76
2016,10,15,13,24,984.80
2016,10,15,13,25,984.73
2016,10,15,13,26,984.66
2016,10,15,13,27,984.73
2016,10,15,13,28,984.49
2016,10,15,13,29,984.56
2016,10,15,13,30,984.49
2016,10,15,13,31,984.46
2016,10,15,13,32,984.46
2016,10,15,13,33,984.42
2016,10,15,13,34,984.28
2016,10,15,13,35,984.15
2016,10,15,13,36,984.12
2016,10,15,13,37,984.19
2016,10,15,13,38,984.14
2016,10,15,13,39,984.01
2016,10,15,13,40,983.85
2016,10,15,13,41,983.84
2016,10,15,13,42,983.61
2016,10,15,13,43,983.58
2016,10,15,13,44,983.58
2016,10,15,13,45,983.64
2016,10,15,13,46,983.60
2016,10,15,13,47,983.51
2016,10,15,13,48,983.20
2016,10,15,13,49,983.20
2016,10,15,13,50,983.20
2016,10,15,13,51,983.24
2016,10,15,13,52,983.23
2016,10,15,13,53,983.14
2016,10,15,13,54,983.09
2016,10,15,13,55,982.97
2016,10,15,13,56,982.93
2016,10,15,13,57,982.83
2016,10,15,13,58,982.80
2016,10,15,13,59,982.80
2016,10,15,14,00,982.76
2016,10,15,14,01,982.80
2016,10,15,14,02,982.76
2016,10,15,14,03,982.76
2016,10,15,14,04,982.70
2016,10,15,14,05,982.58
2016,10,15,14,06,982.46
2016,10,15,14,07,982.40
2016,10,15,14,08,982.48
2016,10,15,14,09,982.39
2016,10,15,14,10,982.26
2016,10,15,14,11,982.19
2016,10,15,14,12,982.09
2016,10,15,14,13,982.19
2016,10,15,14,14,982.12
2016,10,15,14,15,981.91
2016,10,15,14,16,981.68
2016,10,15,14,17,981.61
2016,10,15,14,18,981.65
2016,10,15,14,19,981.58
2016,10,15,14,20,981.58
2016,10,15,14,21,981.58
2016,10,15,14,22,981.58
2016,10,15,14,23,981.65
2016,10,15,14,24,981.58
2016,10,15,14,25,981.58
2016,10,15,14,26,981.55
2016,10,15,14,27,981.54
2016,10,15,14,28,981.40
2016,10,15,14,29,981.18
2016,10,15,14,30,981.31
2016,10,15,14,31,981.44
2016,10,15,14,32,981.31
2016,10,15,14,33,981.34
2016,10,15,14,34,981.34
2016,10,15,14,35,981.24
2016,10,15,14,36,981.17
2016,10,15,14,37,981.13
2016,10,15,14,38,980.97
2016,10,15,14,39,980.94
2016,10,15,14,40,981.04
2016,10,15,14,41,980.97
2016,10,15,14,42,980.94
2016,10,15,14,43,980.73
2016,10,15,14,44,980.63
2016,10,15,14,45,980.60
2016,10,15,14,46,980.53
2016,10,15,14,47,980.43
2016,10,15,14,48,980.56
2016,10,15,14,49,980.29
2016,10,15,14,50,980.56
2016,10,15,14,51,980.49
2016,10,15,14,52,980.39
2016,10,15,14,53,980.39
2016,10,15,14,54,980.46
2016,10,15,14,55,980.56
2016,10,15,14,56,980.32
2016,10,15,14,57,980.16
2016,10,15,14,58,980.26
2016,10,15,14,59,980.29
2016,10,15,15,00,980.33
2016,10,15,15,01,980.33
2016,10,15,15,02,980.29
2016,10,15,15,03,979.99
2016,10,15,15,04,979.85
2016,10,15,15,05,979.84
2016,10,15,15,06,979.75
2016,10,15,15,07,979.68
2016,10,15,15,08,979.61
2016,10,15,15,09,979.58
2016,10,15,15,10,979.51
2016,10,15,15,11,979.55
2016,10,15,15,12,979.38
2016,10,15,15,13,979.58
2016,10,15,15,17,979.45
2016,10,15,15,18,979.45
2016,10,15,15,19,979.38
2016,10,15,15,20,979.31
2016,10,15,15,21,979.31
2016,10,15,15,22,979.31
2016,10,15,15,23,979.31
2016,10,15,15,24,979.01
2016,10,15,15,25,979.14
2016,10,15,15,26,979.11
2016,10,15,15,27,979.17
2016,10,15,15,28,979.17
2016,10,15,15,29,979.17
2016,10,15,15,30,979.11
2016,10,15,15,31,979.04
2016,10,15,15,32,978.98
2016,10,15,15,33,979.11
2016,10,15,15,34,979.07
2016,10,15,15,35,978.94
2016,10,15,15,36,978.73
2016,10,15,15,37,978.94
2016,10,15,15,38,978.90
2016,10,15,15,39,978.90
2016,10,15,15,40,978.80
2016,10,15,15,41,978.94
2016,10,15,15,42,978.94
2016,10,15,15,43,978.90
2016,10,15,15,47,978.87
2016,10,15,15,48,978.90
2016,10,15,15,49,978.87
2016,10,15,15,50,978.87
2016,10,15,15,51,978.90
2016,10,15,15,52,978.84
2016,10,15,15,53,978.84
2016,10,15,15,54,978.80
2016,10,15,15,55,978.90
2016,10,15,15,56,978.97
2016,10,15,15,57,979.01
2016,10,15,15,58,978.90
2016,10,15,15,59,978.94
2016,10,15,16,00,979.01
2016,10,15,16,01,979.11
2016,10,15,16,02,979.14
2016,10,15,16,03,979.14
2016,10,15,16,04,979.17
2016,10,15,16,05,979.11
2016,10,15,16,06,979.17
2016,10,15,16,07,979.11
2016,10,15,16,08,979.01
2016,10,15,16,09,979.14
2016,10,15,16,10,979.04
2016,10,15,16,11,979.04
2016,10,15,16,12,978.97
2016,10,15,16,13,978.97
2016,10,15,16,14,978.77
2016,10,15,16,15,978.80
2016,10,15,16,16,978.84
2016,10,15,16,17,978.87
2016,10,15,16,18,978.73
2016,10,15,16,19,978.80
2016,10,15,16,20,978.84
2016,10,15,16,21,978.80
2016,10,15,16,22,978.73
2016,10,15,16,23,978.74
2016,10,15,16,24,978.87
2016,10,15,16,25,978.80
2016,10,15,16,26,979.01
2016,10,15,16,27,978.80
2016,10,15,16,28,978.80
2016,10,15,16,29,978.73
2016,10,15,16,30,978.77
2016,10,15,16,31,978.73
2016,10,15,16,32,978.77
2016,10,15,16,33,978.73
2016,10,15,16,34,978.73
2016,10,15,16,35,978.73
2016,10,15,16,36,978.70
2016,10,15,16,37,978.63
2016,10,15,16,38,978.57
2016,10,15,16,39,978.57
2016,10,15,16,40,978.57